User: anonymous
Location: Syracuse
(43.0480°N, 76.1480°W)
Time: 12:29:26
(UTC-04:00)
Language:

Cosmos 1140 Rocket - Orbit

View from above orbital plane
View from above orbital plane
View from above satellite
View from above satellite

Ground track
Ground track

The orbit data is extracted from the following two-line orbital elements,

1 11574U 79089B   14274.46304694  .00000488  00000-0  16208-3 0  8556
2 11574 074.0698 245.5589 0015337 038.0287 105.6610 14.40272060834649
Epoch (UTC): 01 October 2014 11:06:47
Eccentricity: 0.0015337
inclination: 74.0698°
perigee height: 746 km
apogee height: 768 km
right ascension of ascending node: 245.5589°
argument of perigee: 38.0287°
revolutions per day: 14.40272060
mean anomaly at epoch: 105.6610°
orbit number at epoch: 83464

The dashed part of the orbit path shows where the satellite is in the earth's shadow,  

DLR